Volver al catálogo

FENGYUN 1C DEB

ActivoSSO
NORAD 29968·DEBRIS·🇨🇳 China

Lanzado May 10, 1999 desde Taiyuan Satellite Launch Center

Loading…

Próximos Pases (próximas 24 horas)

TLE

ActualizadoSource: Space-Track

Época: Sep 14, 2026, 11:26 UTC

1 29968U 99025KS  26257.47653681  .00000080  00000-0  71382-4 0  9994
2 29968  98.8271 245.5536 0088957 298.9739 225.7503 14.07416454  9240

Sigue FENGYUN 1C DEB en tiempo real con AllMySat

Download on the App Store